Location: L�tisburg
(47.3947°N, 9.0820°E)
Time: 00:37:00
(UTC+00:00)

Cosmos 1707 Rocket - Pass Details

Date: 26 June 2021
Orbit: 604 x 632 km, 82.5° (Epoch: 02 August)

Event Time Altitude Azimuth Distance (km) Brightness Sun altitude
Rises 01:47:45 0° 3° (N) 2,897 8.1 -12.4°
Reaches altitude 10° 01:50:36 10° 22° (NNE) 1,981 7.6 -12.2°
Maximum altitude 01:53:41 19° 67° (ENE) 1,489 6.3 -11.9°
Drops below altitude 10° 01:56:44 10° 112° (ESE) 1,960 6.3 -11.6°
Sets 01:59:31 0° 131° (SE) 2,855 6.9 -11.3°
